Location: *
(44.3526°S, 44.9014°W)
Time: 22:52:16
(UTC+00:00)

Meteor 2-1 Rocket - Pass Details

Date: 13 May 2025
Orbit: 821 x 913 km, 81.3° (Epoch: 14 June)

Event Time Altitude Azimuth Distance (km) Brightness Sun altitude
Rises 20:48:50 0° 189° (S) 3,555 7.4 -11.7°
Reaches altitude 10° 20:51:22 10° 186° (S) 2,597 6.7 -12.1°
Maximum altitude 20:57:16 68° 103° (ESE) 954 4.2 -13.1°
Drops below altitude 10° 21:02:57 10° 19° (NNE) 2,503 6.6 -14.1°
Sets 21:05:21 0° 16° (NNE) 3,418 7.3 -14.5°
